Regional Weather Roundup
Issued by NWS

Home | Current Version | Previous Version | Graphics & Text | Print | Product List | Glossary On
Versions: 1 2 3 4 5 6 7 8 9 10 11 12 13 14 15 16 17 18 19 20 21 22 23 24 25 26 27 28 29 30 31 32 33 34 35 36 37 38 39 40 41 42 43 44 45 46 47 48 49 50
031
ASUS43 KDMX 281301
RWRIA

WEATHER ROUNDUP FOR IOWA
NATIONAL WEATHER SERVICE DES MOINES IA
800 AM CDT TUE MAR 28 2017

NOTE: "FAIR" INDICATES FEW OR NO CLOUDS BELOW 12,000 FEET WITH NO
SIGNIFICANT WEATHER AND/OR OBSTRUCTIONS TO VISIBILITY.

* - THESE STATIONS ARE NOT NWS STATIONS...THUS NOT UNDER NWS
QUALITY CONTROL.  THEY ALSO DO NOT REPORT WEATHER SUCH
AS PRECIPITATION OR FOG.

IAZ001>003-012>014-020>022-031>034-043>046-281400-
   NORTHWEST IOWA

CITY           SKY/WX    TMP DP  RH WIND       PRES   REMARKS
CARROLL *      CLOUDY    37  37 100 CALM      30.09R FOG
CHEROKEE *     CLEAR     31  31 100 CALM      30.10R
DENISON *      CLOUDY    37  37 100 CALM      30.11R FOG
LE MARS *      CLOUDY    32  32 100 CALM      30.11R
ORANGE CITY *  CLEAR     37  37 100 CALM      30.09R FOG
SHELDON *      CLEAR     34  34 100 NE8       30.07S FOG     WCI  27
SIOUX CITY     FOG       30  30 100 CALM      30.10R VSB 1/4
SPENCER        CLEAR     31  30  96 CALM      30.10R
STORM LAKE *   CLEAR     36  36 100 N5        30.09R WCI  32
$$

IAZ055>058-069>071-079>083-090>094-281400-
   SOUTHWEST IOWA

CITY           SKY/WX    TMP DP  RH WIND       PRES   REMARKS
ATLANTIC *     CLOUDY    45  41  87 NE5       30.08R
AUDUBON *      CLOUDY    45  41  87 NE3       30.09R
CLARINDA *     CLOUDY    46  41  81 N7        30.10R
COUNCIL BLFS * CLOUDY    43  43 100 CALM      30.08R
CRESTON *      CLOUDY    45  41  87 NE5       30.09R
HARLAN  *      CLOUDY    45  45 100 N7        30.11R
LAMONI         CLOUDY    45  42  89 NE6       30.06R
RED OAK *      CLOUDY    46  39  76 NE7       30.08R
SHENANDOAH *   CLOUDY    46  41  81 E9        30.09R
$$

IAZ047>049-059>061-072>074-084-281400-
   CENTRAL IOWA

CITY           SKY/WX    TMP DP  RH WIND       PRES   REMARKS
AMES           CLOUDY    45  43  93 N6        30.09R
ANKENY *       CLOUDY    45  43  93 CALM      30.09R
BOONE *        CLOUDY    43  43 100 NE5       30.08R
CHARITON *     CLOUDY    45  43  93 CALM      30.07R
DES MOINES     CLOUDY    48  41  76 NE3       30.08R
GRINNELL*      CLOUDY    45  42  89 NE5       30.09R
MARSHALLTOWN   CLOUDY    44  43  96 NE7       30.07R
NEWTON *       CLOUDY    45  43  93 N6        30.07S
PELLA *        CLOUDY    46  43  90 CALM      30.09R
PERRY *        CLOUDY    45  43  93 N5        30.09R
$$

IAZ004>006-015-016-023>025-035-036-281400-
   NORTH CENTRAL IOWA

CITY           SKY/WX    TMP DP  RH WIND       PRES   REMARKS
ALGONA *       FOG       32  32 100 N5        30.10R VSB<1/4 WCI  27
CLARION *      CLOUDY    36  36 100 N6        30.09R FOG     WCI  31
ESTHERVILLE    CLEAR     32  32 100 NW6       30.10R FOG     WCI  26
FORT DODGE *   CLOUDY    32  28  86 CALM      30.11R VSB<1/4
MASON CITY     FOG       31  30  96 CALM      30.11R VSB 1/4
FOREST CITY *  FOG       32  32 100 CALM      30.10R VSB<1/4
WEBSTER CITY * MOCLDY    37  37 100 N3        30.08R FOG
IOWA FALLS *   CLOUDY    44  41  90 NE5       30.09S
$$

IAZ007>011-017>019-026>030-037>042-050>054-066-281400-
   NORTHEAST IOWA

CITY           SKY/WX    TMP DP  RH WIND       PRES   REMARKS
CEDAR RAPIDS   CLOUDY    45  45 100 N3        30.07R
CHARLES CITY * CLOUDY    43  43 100 NE5       30.10R
CLINTON *      CLOUDY    46  45  96 NE9       30.09R FOG
DECORAH *      CLOUDY    41  39  93 NE5       30.09R
DUBUQUE        FOG       44  44 100 N8        30.09R VSB 1/4
MONTICELLO *   CLOUDY    45  45 100 CALM      30.08R FOG
OELWEIN *      CLOUDY    43  43 100 NE8       30.09S
WATERLOO       CLOUDY    44  41  89 NE3       30.09R
$$

IAZ064-065-067-068-078-281400-
   EAST CENTRAL IOWA

CITY           SKY/WX    TMP DP  RH WIND       PRES   REMARKS
DAVENPORT      CLOUDY    47  45  93 NE5       30.08R FOG
IOWA CITY      CLOUDY    48  44  86 NE7       30.09R
MUSCATINE *    CLOUDY    48  45  87 NE5       30.09R
QUAD CITIES    CLOUDY    49  44  83 N3        30.08R
$$

IAZ062-063-075>077-085>089-095>099-281400-
   SOUTHEAST IOWA

CITY           SKY/WX    TMP DP  RH WIND       PRES   REMARKS
BURLINGTON     CLOUDY    49  47  93 NE7       30.07R
FAIRFIELD *    CLOUDY    46  46 100 N5        30.07R FOG
FORT MADISON * CLOUDY    48  46  93 CALM      30.08R FOG
KEOKUK *       CLOUDY    48  48 100 NE5       30.06R FOG
OSKALOOSA *    CLOUDY    45  43  93 NE5       30.08R
OTTUMWA        CLOUDY    47  44  90 N6        30.07R
WASHINGTON *   CLOUDY    46  46 100 CALM      30.09R
$$

ABBREVIATIONS USED IN REMARKS
   TC - TEMPERATURES IN CELSIUS
  WCI - WIND CHILL INDEX
   HX - HEAT INDEX
  VSB - VISIBILITY
$$





USA.gov is the U.S. government's official web portal to all federal, state and local government web resources and services.